Location: Congrier
(47.8099°N, 1.1170°W)
Time: 17:49:03
(UTC+00:00)

Cosmos 2227 Rocket - Pass Details

Date: 28 January 2023
Orbit: 839 x 844 km, 71.0° (Epoch: 26 March)

Event Time Altitude Azimuth Distance (km) Brightness Sun altitude
Rises 18:05:27 0° 326° (NW) 3,414 5.6 -11.4°
Reaches altitude 10° 18:08:05 10° 318° (NW) 2,474 5.0 -11.8°
Maximum altitude 18:13:11 36° 254° (WSW) 1,320 4.0 -12.6°
Drops below altitude 10° 18:18:16 10° 190° (S) 2,456 4.9 -13.5°
Sets 18:20:52 0° 181° (S) 3,386 5.5 -13.9°
